Wind_Speed
8 8 9 9 9 9 10 10 11 11 12 12 13 13 13 14 14 13 14 14 14 14 13 13 13 13 14 15 16 16 16 16 16 17 18 18 17 18 18 17 17 17 17
9 10 11 11 11 11 12 12 12 13 13 14 14 14 14 15 14 13 13 14 14 14 14 14 15 15 15 16 17 17 17 17 17 17 17 18 18 18 18 18 18 18 18
11 11 12 12 13 12 13 14 14 14 14 15 14 14 15 15 15 14 14 15 15 16 16 16 16 17 17 18 18 19 19 18 18 18 18 19 18 18 18 19 19 19 19
11 12 12 14 14 14 14 14 14 15 15 16 16 16 16 16 16 16 16 16 16 16 17 17 18 19 20 20 20 21 21 20 20 20 20 20 20 19 19 20 20 20 20
13 14 14 15 14 15 15 16 16 16 16 17 18 18 18 18 18 18 17 17 17 17 18 19 20 21 22 22 22 21 22 21 21 21 21 21 21 21 21 21 20 20 21
15 15 17 17 17 16 16 18 18 17 18 19 18 18 19 19 20 20 20 19 18 18 19 20 20 21 22 23 23 23 23 23 22 23 23 23 23 22 21 21 21 22 22
16 16 17 18 19 18 19 19 19 18 18 19 19 20 20 20 20 21 20 20 19 19 19 20 21 21 22 23 24 24 24 24 24 25 25 25 24 23 23 23 23 23 23
17 17 18 19 20 21 20 20 21 21 21 21 22 22 22 21 22 22 22 22 21 21 22 22 23 23 24 24 25 25 25 25 25 25 26 26 26 25 25 25 25 25 25
19 19 20 21 22 22 22 22 23 22 22 22 23 23 23 23 23 23 23 23 23 23 23 24 24 25 25 26 26 26 26 25 25 25 26 26 27 27 27 27 27 27 27
21 22 22 23 23 23 23 24 24 24 24 25 25 24 24 25 25 25 25 25 25 25 26 25 25 26 27 27 27 27 27 26 26 26 27 27 28 28 28 28 29 29 28
23 24 24 24 24 24 24 25 25 25 25 25 25 25 25 26 27 27 27 27 27 27 27 27 27 26 27 27 28 28 28 28 27 27 27 28 29 29 29 30 31 31 30
24 25 25 25 25 25 25 25 25 26 26 26 26 26 27 27 28 28 28 28 28 28 28 28 27 28 28 28 29 29 30 30 28 28 28 28 29 30 30 31 31 31 31
26 26 26 26 27 27 26 26 26 26 26 27 27 27 28 28 28 28 28 28 28 28 29 29 29 29 29 28 29 29 29 29 29 30 30 30 30 30 31 31 31 32 31
27 27 27 27 27 28 28 28 28 28 28 28 28 29 29 29 30 30 30 30 30 29 29 29 29 29 29 29 28 29 29 30 30 31 31 31 31 30 31 31 31 32 32
29 28 29 28 28 28 29 30 30 29 29 29 30 29 30 30 30 30 30 30 30 30 30 29 30 29 30 30 30 30 31 31 30 31 31 31 31 31 31 32 32 32 31
29 29 29 29 29 29 30 30 30 30 31 31 31 31 30 31 31 30 30 30 30 31 31 31 30 31 31 32 32 32 32 32 32 32 32 32 32 32 32 32 32 33 33
30 29 29 30 30 30 30 31 31 32 33 32 32 31 31 32 32 31 31 31 31 32 32 32 32 33 33 33 33 34 34 34 33 33 33 33 34 34 34 34 34 34 34
30 30 30 30 31 31 31 32 32 33 33 32 32 32 32 32 32 33 32 32 32 32 32 33 34 34 35 35 35 35 35 35 34 34 34 35 35 35 35 35 35 35 35
29 30 30 31 31 31 32 33 33 33 33 33 33 32 33 33 33 33 33 33 33 33 33 34 35 35 36 36 36 36 36 36 36 35 35 35 36 36 36 36 35 35 35
30 30 31 31 31 32 33 34 34 35 34 34 33 33 33 33 33 33 33 33 34 34 34 35 35 36 36 36 37 37 37 37 36 36 36 36 36 36 35 35 36 36 36
29 29 29 30 31 32 32 33 34 34 34 34 33 33 33 33 33 33 33 33 33 32 33 34 34 35 36 37 37 37 37 38 37 36 36 36 37 37 37 37 36 37 36
29 29 29 30 30 30 31 32 32 32 32 32 32 32 32 33 33 33 33 32 32 32 33 33 34 34 35 35 36 37 37 38 37 37 38 38 39 38 38 37 37 37 36
28 29 29 29 29 29 30 31 31 31 31 32 32 32 32 32 32 32 32 32 32 32 33 34 34 34 35 36 36 37 37 37 37 37 38 38 38 38 38 37 37 36 36
27 27 27 27 28 28 29 29 30 30 30 31 31 32 31 31 31 31 32 31 32 33 33 34 34 35 35 35 36 36 38 38 37 37 37 37 37 37 36 36 36 35 35
25 26 26 27 27 28 28 28 29 29 30 30 30 30 30 31 31 31 31 32 32 33 34 34 35 35 35 35 36 37 38 37 37 37 36 36 36 36 36 35 35 34 34
25 26 26 26 26 26 27 27 28 29 29 29 29 29 30 30 31 31 31 32 34 34 35 35 36 37 37 37 37 38 38 37 36 36 36 36 35 35 35 34 34 34 33
Wind_Direction
293 298 304 306 303 303 307 309 308 308 308 310 312 312 310 311 310 306 302 297 297 299 298 299 297 296 295 295 295 294 294 294 292 289 287 286 283 284 283 283 282 283 283
294 303 302 299 300 300 300 300 302 301 302 304 306 308 308 306 307 307 306 304 302 300 298 297 296 297 297 296 296 295 295 294 293 292 290 288 286 285 283 282 281 280 282
295 300 302 297 297 298 298 296 297 299 299 302 302 304 304 304 303 303 303 302 300 298 297 296 296 295 296 296 296 296 294 293 292 291 290 289 287 286 283 281 280 280 281
292 298 300 298 298 296 297 297 297 298 296 301 300 301 302 304 306 302 299 300 299 298 298 296 295 294 295 294 295 295 293 291 290 290 289 287 285 286 285 282 281 280 279
291 294 301 306 302 299 299 299 297 296 296 299 298 298 300 302 303 303 301 299 298 298 298 297 295 294 294 294 293 294 293 292 290 290 289 288 286 286 285 283 281 280 280
292 293 299 304 305 304 302 299 298 298 297 299 297 299 301 302 300 300 298 296 296 297 298 297 296 295 294 295 296 295 294 292 291 289 288 288 286 285 285 283 282 280 279
289 290 294 299 300 298 299 297 296 297 298 298 298 299 300 301 300 302 301 298 297 298 298 297 298 299 297 296 297 295 292 290 289 288 286 286 285 283 283 283 282 281 281
283 286 290 294 294 296 297 296 293 294 296 297 299 300 300 300 302 302 299 296 296 296 296 295 295 296 296 296 296 295 292 290 288 287 286 285 284 283 283 283 282 281 281
281 283 285 289 292 292 293 292 291 292 294 294 295 296 298 299 300 299 297 295 295 294 293 293 294 295 296 295 294 293 293 292 290 289 288 286 284 283 282 282 281 280 280
281 282 283 286 288 289 289 289 289 290 291 292 294 296 297 297 298 298 296 295 295 294 293 292 292 294 295 295 295 293 291 290 290 290 289 288 286 285 283 283 282 280 279
279 281 281 282 286 286 288 289 287 286 287 289 293 295 296 296 295 295 295 293 293 293 294 291 290 292 293 295 295 294 293 291 290 290 290 289 288 286 285 284 283 281 280
278 280 281 284 287 288 287 287 287 285 285 287 291 293 294 295 295 294 294 293 292 292 293 291 290 291 292 293 293 293 292 291 289 289 290 290 289 288 286 285 284 282 281
277 279 279 282 285 285 284 285 285 286 287 289 292 294 295 294 294 293 292 291 289 290 290 290 290 291 291 293 293 293 294 291 290 290 290 290 289 288 288 287 285 284 282
275 277 279 280 284 284 282 286 288 288 290 292 293 293 294 294 294 293 292 290 289 289 289 289 290 291 292 293 294 293 293 291 291 290 289 289 289 288 288 287 285 285 283
275 276 278 280 283 284 285 288 289 289 290 290 291 291 292 293 293 293 292 291 290 291 291 290 289 290 291 292 293 293 292 291 290 289 289 288 288 288 287 286 285 285 283
274 277 279 280 282 284 286 286 287 288 288 289 290 291 292 293 293 293 293 291 291 291 290 290 290 290 291 291 291 291 291 290 289 289 290 288 288 287 286 285 284 284 283
277 278 279 281 283 284 285 286 286 288 289 288 289 289 290 292 293 293 293 293 292 292 290 289 289 290 290 290 290 290 290 290 289 288 289 288 287 286 285 284 283 283 282
277 278 280 282 282 283 285 285 285 288 289 287 287 288 289 290 291 291 292 292 291 292 291 290 289 288 288 288 289 288 289 291 291 289 289 289 288 286 285 284 283 282 282
278 279 281 282 282 283 284 285 287 289 289 287 287 287 289 290 291 292 292 292 292 291 291 290 290 289 288 288 288 288 289 290 289 289 289 288 287 286 284 283 282 282 281
278 279 280 281 282 284 286 287 288 289 289 290 289 288 288 289 290 292 292 292 292 291 291 290 290 290 289 288 288 289 289 290 289 288 288 288 287 286 285 283 282 281 281
279 280 282 283 285 286 287 288 289 289 288 289 289 289 289 289 289 290 291 291 291 291 290 289 289 289 289 289 289 288 288 289 289 288 289 288 288 288 287 285 283 282 281
280 281 283 285 286 287 288 290 290 289 289 289 289 289 290 290 291 291 291 290 291 292 292 292 291 291 290 290 288 288 289 290 290 290 289 289 289 288 288 287 285 282 281
281 283 283 285 287 288 290 290 289 289 289 289 289 290 291 291 291 291 291 291 292 293 293 293 294 293 293 293 292 291 291 291 291 290 289 289 288 287 286 286 286 283 281
282 283 285 287 289 289 290 290 290 290 290 290 291 292 292 293 293 292 292 293 293 294 295 295 295 295 295 294 294 293 293 292 292 291 291 291 290 289 288 286 285 284 282
284 285 287 288 289 290 290 292 292 292 293 293 293 293 293 294 294 295 294 295 295 295 296 297 296 296 295 295 295 295 294 293 292 292 292 292 292 291 289 287 285 283 282
286 287 289 289 289 290 291 293 294 295 296 295 295 295 295 295 295 296 297 297 297 297 297 297 297 298 297 298 298 298 297 295 294 294 293 292 292 291 290 288 286 284 282
Height
5895 5894 5893 5892 5891 5890 5889 5887 5886 5885 5883 5881 5880 5878 5876 5874 5872 5870 5869 5867 5866 5864 5863 5862 5860 5859 5857 5855 5854 5852 5850 5848 5846 5844 5842 5840 5839 5838 5837 5835 5834 5833 5832
5892 5891 5890 5889 5888 5886 5885 5884 5883 5881 5880 5878 5876 5874 5872 5870 5868 5866 5865 5863 5862 5860 5859 5857 5856 5854 5853 5851 5849 5847 5845 5843 5842 5840 5837 5835 5834 5832 5831 5830 5829 5828 5826
5889 5888 5886 5885 5883 5882 5881 5880 5879 5877 5876 5874 5872 5870 5868 5866 5864 5862 5861 5859 5857 5856 5854 5853 5851 5849 5848 5846 5844 5842 5840 5838 5836 5834 5832 5830 5828 5827 5826 5824 5823 5822 5820
5885 5884 5883 5881 5879 5878 5877 5875 5874 5873 5871 5870 5868 5866 5864 5862 5860 5858 5856 5854 5852 5851 5849 5847 5846 5844 5843 5841 5839 5836 5834 5832 5830 5828 5826 5825 5823 5821 5820 5818 5817 5815 5814
5881 5880 5879 5878 5875 5874 5872 5871 5869 5868 5867 5865 5864 5862 5860 5858 5856 5854 5852 5850 5848 5846 5844 5842 5841 5839 5837 5835 5833 5830 5828 5826 5824 5822 5820 5819 5817 5815 5813 5812 5810 5809 5808
5876 5876 5875 5873 5871 5869 5868 5866 5865 5863 5862 5860 5858 5857 5855 5853 5851 5849 5846 5844 5842 5840 5839 5837 5835 5833 5831 5829 5826 5824 5822 5820 5818 5816 5814 5812 5811 5809 5807 5805 5804 5803 5802
5872 5871 5870 5869 5867 5865 5863 5862 5860 5858 5857 5855 5853 5851 5849 5847 5845 5843 5840 5838 5837 5835 5833 5831 5829 5827 5824 5822 5820 5817 5815 5813 5811 5809 5807 5805 5803 5802 5800 5798 5797 5796 5795
5867 5866 5865 5864 5862 5860 5858 5856 5855 5854 5851 5849 5848 5845 5843 5841 5839 5837 5835 5832 5830 5829 5827 5825 5822 5820 5818 5816 5813 5811 5808 5806 5803 5801 5800 5797 5796 5794 5793 5791 5789 5788 5787
5862 5861 5860 5858 5856 5855 5853 5851 5849 5848 5846 5844 5841 5839 5837 5835 5832 5830 5828 5826 5824 5822 5820 5818 5815 5813 5811 5808 5806 5804 5801 5798 5796 5794 5792 5790 5788 5786 5785 5783 5781 5780 5779
5855 5854 5853 5852 5850 5849 5847 5845 5843 5841 5839 5837 5835 5832 5830 5828 5826 5823 5821 5819 5817 5815 5812 5810 5808 5805 5803 5800 5798 5795 5793 5791 5788 5786 5784 5782 5780 5778 5776 5774 5772 5771 5769
5848 5847 5846 5845 5843 5842 5840 5838 5836 5834 5832 5830 5828 5825 5823 5821 5818 5816 5814 5812 5809 5807 5805 5802 5800 5797 5794 5792 5789 5787 5784 5782 5780 5778 5776 5773 5771 5769 5767 5765 5763 5761 5760
5840 5839 5838 5837 5836 5834 5833 5831 5829 5827 5825 5823 5820 5818 5815 5813 5811 5808 5806 5803 5801 5799 5796 5794 5791 5789 5786 5783 5781 5779 5776 5774 5771 5769 5767 5765 5762 5760 5758 5755 5753 5751 5750
5832 5832 5831 5830 5828 5826 5825 5824 5821 5819 5817 5815 5813 5810 5808 5805 5803 5800 5797 5795 5793 5790 5788 5785 5783 5780 5778 5775 5772 5770 5768 5765 5763 5761 5758 5756 5753 5751 5748 5746 5744 5742 5740
5824 5824 5823 5822 5820 5818 5816 5815 5813 5811 5809 5807 5805 5803 5800 5797 5794 5792 5789 5786 5784 5781 5779 5777 5774 5772 5769 5766 5764 5761 5759 5756 5754 5752 5749 5747 5744 5741 5739 5736 5734 5732 5730
5816 5815 5815 5814 5812 5811 5809 5807 5805 5802 5800 5798 5796 5794 5791 5789 5786 5783 5780 5778 5775 5773 5770 5768 5766 5763 5760 5758 5755 5753 5750 5747 5745 5742 5740 5737 5735 5732 5729 5727 5724 5722 5720
5807 5807 5806 5805 5804 5802 5800 5798 5796 5794 5792 5789 5787 5785 5782 5780 5777 5774 5771 5769 5766 5764 5761 5759 5756 5754 5751 5749 5746 5743 5741 5738 5735 5733 5730 5727 5724 5722 5719 5717 5714 5712 5710
5798 5797 5797 5796 5794 5793 5791 5789 5787 5785 5782 5780 5777 5775 5772 5770 5768 5765 5762 5759 5757 5754 5752 5749 5746 5744 5742 5739 5736 5733 5730 5728 5725 5722 5719 5717 5714 5711 5709 5706 5704 5702 5700
5788 5788 5787 5786 5785 5783 5782 5780 5778 5775 5772 5769 5767 5765 5762 5760 5758 5755 5752 5750 5747 5744 5742 5739 5737 5734 5731 5729 5726 5723 5720 5717 5714 5711 5708 5706 5703 5700 5698 5695 5693 5691 5689
5779 5778 5777 5776 5775 5773 5772 5770 5767 5765 5762 5759 5757 5754 5752 5750 5748 5745 5742 5739 5736 5734 5731 5729 5726 5724 5721 5718 5715 5712 5709 5707 5704 5700 5697 5694 5691 5688 5686 5684 5681 5679 5677
5769 5768 5767 5766 5765 5763 5762 5759 5757 5754 5752 5749 5747 5744 5742 5739 5737 5735 5732 5729 5726 5723 5721 5718 5715 5713 5710 5707 5704 5701 5698 5695 5692 5689 5686 5683 5680 5677 5674 5672 5670 5668 5666
5760 5759 5757 5756 5755 5753 5751 5749 5746 5744 5741 5739 5736 5734 5731 5729 5727 5724 5721 5718 5716 5713 5710 5707 5704 5701 5698 5695 5692 5689 5686 5683 5680 5677 5674 5671 5668 5665 5662 5660 5657 5655 5653
5751 5750 5748 5746 5745 5743 5741 5738 5736 5733 5731 5729 5726 5723 5721 5718 5716 5714 5711 5708 5705 5702 5699 5696 5693 5690 5686 5683 5680 5677 5674 5671 5668 5665 5662 5659 5656 5653 5650 5647 5645 5643 5641
5742 5741 5739 5737 5735 5733 5731 5729 5726 5724 5722 5719 5716 5713 5710 5708 5706 5703 5700 5697 5695 5692 5689 5685 5682 5679 5675 5672 5669 5665 5662 5659 5656 5652 5649 5646 5643 5640 5637 5635 5632 5630 5628
5734 5732 5731 5729 5727 5724 5722 5720 5717 5715 5712 5709 5706 5704 5701 5698 5696 5693 5690 5687 5684 5681 5678 5674 5671 5668 5664 5660 5657 5653 5650 5646 5643 5639 5636 5633 5630 5627 5624 5622 5619 5617 5615
5725 5724 5722 5720 5718 5716 5713 5711 5708 5706 5703 5700 5697 5694 5691 5689 5686 5683 5679 5676 5673 5670 5667 5663 5660 5656 5652 5649 5645 5642 5638 5634 5630 5627 5624 5621 5618 5615 5612 5610 5607 5605 5603
5717 5715 5714 5712 5709 5707 5705 5702 5700 5697 5694 5691 5688 5685 5682 5679 5676 5672 5669 5666 5663 5660 5656 5652 5648 5645 5641 5637 5633 5630 5626 5622 5619 5615 5612 5609 5606 5603 5601 5598 5596 5593 5591